Time,TemperatureF,DewpointF,PressureIn,WindDirection,WindDirectionDegrees,WindSpeedMPH,WindSpeedGustMPH,Humidity,HourlyPrecipIn,Conditions,Clouds,dailyrainin,SoftwareType,DateUTC
2013-05-09 00:11:00,52.0,51.0,30.04,NNW,331,1.0,1.0,96,0.01,,,0.33,weatherlink.com 1.10,2013-05-09 04:11:00,
2013-05-09 00:26:00,52.3,51.0,30.03,NE,46,0.0,3.0,96,0.01,,,0.33,weatherlink.com 1.10,2013-05-09 04:26:00,
2013-05-09 00:41:00,52.0,51.0,30.03,NE,46,1.0,2.0,96,0.01,,,0.33,weatherlink.com 1.10,2013-05-09 04:41:00,
2013-05-09 00:56:00,52.3,51.0,30.04,NE,50,3.0,4.0,96,0.01,,,0.34,weatherlink.com 1.10,2013-05-09 04:56:00,
2013-05-09 01:11:00,52.5,51.0,30.04,NE,46,0.0,2.0,95,0.01,,,0.34,weatherlink.com 1.10,2013-05-09 05:11:00,
2013-05-09 01:26:00,52.6,51.0,30.04,NE,46,1.0,3.0,95,0.02,,,0.35,weatherlink.com 1.10,2013-05-09 05:26:00,
2013-05-09 01:41:00,52.7,51.0,30.03,NE,43,0.0,2.0,94,0.01,,,0.35,weatherlink.com 1.10,2013-05-09 05:41:00,
2013-05-09 01:56:00,52.5,51.0,30.03,NE,43,0.0,1.0,95,0.01,,,0.35,weatherlink.com 1.10,2013-05-09 05:56:00,
2013-05-09 02:11:00,52.7,51.0,30.02,NE,44,0.0,3.0,95,0.01,,,0.35,weatherlink.com 1.10,2013-05-09 06:11:00,
2013-05-09 02:26:00,53.1,52.0,30.03,NE,42,1.0,3.0,95,0.01,,,0.36,weatherlink.com 1.10,2013-05-09 06:26:00,
2013-05-09 02:41:00,53.4,52.0,30.02,ENE,62,3.0,3.0,94,0.01,,,0.36,weatherlink.com 1.10,2013-05-09 06:41:00,
2013-05-09 02:56:00,53.5,52.0,30.02,NE,46,1.0,3.0,93,0.01,,,0.36,weatherlink.com 1.10,2013-05-09 06:56:00,
2013-05-09 03:13:00,53.5,52.0,30.02,NE,42,2.0,3.0,93,0.02,,,0.37,weatherlink.com 1.10,2013-05-09 07:13:00,
2013-05-09 03:26:00,53.3,51.0,30.01,NE,42,1.0,2.0,93,0.01,,,0.37,weatherlink.com 1.10,2013-05-09 07:26:00,
2013-05-09 03:41:00,53.2,51.0,30.01,NE,42,0.0,1.0,93,0.01,,,0.37,weatherlink.com 1.10,2013-05-09 07:41:00,
2013-05-09 03:56:00,52.6,51.0,30.01,NE,42,0.0,2.0,93,0.01,,,0.37,weatherlink.com 1.10,2013-05-09 07:56:00,
2013-05-09 04:11:00,51.7,50.0,30.01,WNW,298,0.0,3.0,93,0.01,,,0.38,weatherlink.com 1.10,2013-05-09 08:11:00,
2013-05-09 04:26:00,51.5,50.0,30.02,WNW,298,0.0,1.0,95,0.01,,,0.00,weatherlink.com 1.10,2013-05-09 08:26:00,
2013-05-09 04:41:00,51.2,50.0,30.02,WNW,298,0.0,2.0,95,0.02,,,0.01,weatherlink.com 1.10,2013-05-09 08:41:00,
2013-05-09 04:56:00,51.3,50.0,30.02,WNW,298,2.0,3.0,95,0.01,,,0.01,weatherlink.com 1.10,2013-05-09 08:56:00,
2013-05-09 05:11:00,51.4,50.0,30.02,WNW,298,1.0,2.0,96,0.01,,,0.01,weatherlink.com 1.10,2013-05-09 09:11:00,
2013-05-09 05:26:00,50.7,49.0,30.03,WNW,298,0.0,0.0,95,0.01,,,0.01,weatherlink.com 1.10,2013-05-09 09:26:00,
2013-05-09 05:41:00,50.0,49.0,30.03,WNW,298,0.0,0.0,95,0.01,,,0.02,weatherlink.com 1.10,2013-05-09 09:41:00,
2013-05-09 05:56:00,49.3,48.0,30.04,WNW,298,0.0,0.0,94,0.01,,,0.02,weatherlink.com 1.10,2013-05-09 09:56:00,
2013-05-09 06:11:00,48.4,47.0,30.05,WNW,298,0.0,0.0,95,0.01,,,0.02,weatherlink.com 1.10,2013-05-09 10:11:00,
2013-05-09 06:26:00,48.1,47.0,30.05,WNW,298,0.0,0.0,95,0.02,,,0.03,weatherlink.com 1.10,2013-05-09 10:26:00,
2013-05-09 06:41:00,47.6,46.0,30.06,WNW,298,0.0,0.0,95,0.01,,,0.03,weatherlink.com 1.10,2013-05-09 10:41:00,
2013-05-09 06:57:00,47.1,46.0,30.07,WNW,298,0.0,1.0,95,0.01,,,0.03,weatherlink.com 1.10,2013-05-09 10:57:00,
2013-05-09 07:11:00,46.9,46.0,30.07,WNW,298,0.0,0.0,95,0.02,,,0.04,weatherlink.com 1.10,2013-05-09 11:11:00,
2013-05-09 07:26:00,47.1,46.0,30.08,WNW,298,0.0,0.0,96,0.01,,,0.04,weatherlink.com 1.10,2013-05-09 11:26:00,
2013-05-09 07:41:00,47.3,46.0,30.08,WNW,298,0.0,0.0,96,0.01,,,0.04,weatherlink.com 1.10,2013-05-09 11:41:00,
2013-05-09 07:56:00,49.4,49.0,30.08,WNW,298,0.0,0.0,97,0.01,,,0.04,weatherlink.com 1.10,2013-05-09 11:56:00,
2013-05-09 08:11:00,51.1,50.0,30.08,NE,40,1.0,3.0,97,0.01,,,0.05,weatherlink.com 1.10,2013-05-09 12:11:00,
2013-05-09 08:26:00,52.3,52.0,30.08,North,5,1.0,4.0,97,0.01,,,0.05,weatherlink.com 1.10,2013-05-09 12:26:00,
2013-05-09 08:41:00,54.2,53.0,30.08,ENE,61,1.0,5.0,97,0.01,,,0.05,weatherlink.com 1.10,2013-05-09 12:41:00,
2013-05-09 08:56:00,55.5,53.0,30.10,ESE,115,1.0,7.0,90,0.01,,,0.05,weatherlink.com 1.10,2013-05-09 12:56:00,
2013-05-09 09:11:00,56.5,53.0,30.10,ESE,111,0.0,6.0,89,0.01,,,0.06,weatherlink.com 1.10,2013-05-09 13:11:00,
2013-05-09 09:26:00,58.1,55.0,30.10,East,86,3.0,7.0,88,0.01,,,0.06,weatherlink.com 1.10,2013-05-09 13:26:00,
2013-05-09 09:41:00,59.1,54.0,30.10,ESE,115,4.0,9.0,83,0.02,,,0.07,weatherlink.com 1.10,2013-05-09 13:41:00,
2013-05-09 09:57:00,60.2,55.0,30.09,ESE,104,1.0,9.0,83,0.02,,,0.07,weatherlink.com 1.10,2013-05-09 13:57:00,
2013-05-09 10:12:00,60.9,54.0,30.09,SE,127,4.0,9.0,79,0.01,,,0.07,weatherlink.com 1.10,2013-05-09 14:12:00,
2013-05-09 10:27:00,61.3,54.0,30.09,ENE,74,5.0,11.0,78,0.02,,,0.08,weatherlink.com 1.10,2013-05-09 14:27:00,
2013-05-09 10:42:00,61.8,54.0,30.09,East,87,6.0,13.0,76,0.01,,,0.08,weatherlink.com 1.10,2013-05-09 14:42:00,
2013-05-09 10:57:00,62.9,55.0,30.09,ESE,104,0.0,11.0,74,0.02,,,0.09,weatherlink.com 1.10,2013-05-09 14:57:00,
2013-05-09 11:12:00,64.0,54.0,30.10,ESE,115,1.0,10.0,71,0.02,,,0.09,weatherlink.com 1.10,2013-05-09 15:12:00,
2013-05-09 11:27:00,64.7,54.0,30.10,ESE,119,0.0,10.0,68,0.01,,,0.09,weatherlink.com 1.10,2013-05-09 15:27:00,
2013-05-09 11:42:00,65.1,55.0,30.10,East,88,2.0,11.0,70,0.02,,,0.10,weatherlink.com 1.10,2013-05-09 15:42:00,
2013-05-09 11:57:00,66.2,56.0,30.11,East,82,3.0,11.0,69,0.02,,,0.11,weatherlink.com 1.10,2013-05-09 15:57:00,
2013-05-09 12:12:00,67.0,55.0,30.11,ENE,74,3.0,10.0,66,0.02,,,0.11,weatherlink.com 1.10,2013-05-09 16:12:00,
2013-05-09 12:27:00,67.2,55.0,30.11,SSE,157,4.0,9.0,65,0.03,,,0.12,weatherlink.com 1.10,2013-05-09 16:27:00,
2013-05-09 12:42:00,66.6,54.0,30.11,ENE,65,7.0,12.0,64,0.03,,,0.13,weatherlink.com 1.10,2013-05-09 16:42:00,
2013-05-09 12:57:00,66.2,52.0,30.10,East,96,3.0,8.0,61,0.03,,,0.14,weatherlink.com 1.10,2013-05-09 16:57:00,
2013-05-09 13:12:00,66.3,53.0,30.11,ESE,117,1.0,9.0,62,0.03,,,0.14,weatherlink.com 1.10,2013-05-09 17:12:00,
2013-05-09 13:27:00,67.5,54.0,30.11,ESE,121,2.0,10.0,62,0.03,,,0.15,weatherlink.com 1.10,2013-05-09 17:27:00,
2013-05-09 13:42:00,68.1,53.0,30.11,ESE,109,2.0,9.0,59,0.03,,,0.16,weatherlink.com 1.10,2013-05-09 17:42:00,
2013-05-09 13:57:00,68.4,53.0,30.11,ENE,65,7.0,10.0,58,0.03,,,0.17,weatherlink.com 1.10,2013-05-09 17:57:00,
2013-05-09 14:12:00,67.0,52.0,30.10,South,183,1.0,9.0,58,0.03,,,0.17,weatherlink.com 1.10,2013-05-09 18:12:00,
2013-05-09 14:27:00,68.0,54.0,30.10,East,83,5.0,5.0,62,0.03,,,0.18,weatherlink.com 1.10,2013-05-09 18:27:00,
2013-05-09 14:42:00,68.5,52.0,30.09,ESE,103,4.0,9.0,57,0.03,,,0.19,weatherlink.com 1.10,2013-05-09 18:42:00,
2013-05-09 14:57:00,69.3,54.0,30.09,ESE,111,0.0,9.0,58,0.02,,,0.19,weatherlink.com 1.10,2013-05-09 18:57:00,
2013-05-09 15:12:00,69.6,54.0,30.08,ESE,102,3.0,9.0,57,0.03,,,0.20,weatherlink.com 1.10,2013-05-09 19:12:00,
2013-05-09 15:27:00,70.4,53.0,30.07,ESE,117,3.0,8.0,54,0.03,,,0.21,weatherlink.com 1.10,2013-05-09 19:27:00,
2013-05-09 15:42:00,70.4,54.0,30.07,ESE,121,0.0,7.0,57,0.02,,,0.21,weatherlink.com 1.10,2013-05-09 19:42:00,
2013-05-09 15:57:00,70.5,52.0,30.06,ESE,116,0.0,8.0,53,0.03,,,0.22,weatherlink.com 1.10,2013-05-09 19:57:00,
2013-05-09 16:12:00,70.9,53.0,30.05,East,101,2.0,7.0,54,0.03,,,0.23,weatherlink.com 1.10,2013-05-09 20:12:00,
2013-05-09 16:27:00,71.0,53.0,30.05,ESE,107,2.0,7.0,53,0.03,,,0.24,weatherlink.com 1.10,2013-05-09 20:27:00,
2013-05-09 16:42:00,71.2,52.0,30.05,East,90,0.0,7.0,51,0.03,,,0.24,weatherlink.com 1.10,2013-05-09 20:42:00,
2013-05-09 16:57:00,70.6,52.0,30.04,ESE,121,0.0,6.0,52,0.03,,,0.25,weatherlink.com 1.10,2013-05-09 20:57:00,
2013-05-09 17:12:00,70.8,52.0,30.05,ESE,113,2.0,7.0,52,0.03,,,0.26,weatherlink.com 1.10,2013-05-09 21:12:00,
2013-05-09 17:27:00,69.9,53.0,30.05,ESE,106,0.0,5.0,55,0.02,,,0.26,weatherlink.com 1.10,2013-05-09 21:27:00,
2013-05-09 17:42:00,69.8,53.0,30.05,ESE,109,2.0,5.0,56,0.03,,,0.27,weatherlink.com 1.10,2013-05-09 21:42:00,
2013-05-09 17:57:00,68.7,52.0,30.05,East,82,1.0,7.0,56,0.02,,,0.27,weatherlink.com 1.10,2013-05-09 21:57:00,
2013-05-09 18:12:00,68.2,52.0,30.05,ENE,68,4.0,8.0,57,0.02,,,0.28,weatherlink.com 1.10,2013-05-09 22:12:00,
2013-05-09 18:27:00,67.4,53.0,30.05,East,79,3.0,9.0,60,0.02,,,0.28,weatherlink.com 1.10,2013-05-09 22:27:00,
2013-05-09 18:42:00,66.6,53.0,30.05,ENE,67,2.0,9.0,63,0.02,,,0.29,weatherlink.com 1.10,2013-05-09 22:42:00,
2013-05-09 18:57:00,65.8,54.0,30.05,ESE,104,1.0,5.0,65,0.02,,,0.29,weatherlink.com 1.10,2013-05-09 22:57:00,
2013-05-09 19:12:00,65.8,54.0,30.05,SE,136,0.0,1.0,65,0.02,,,0.30,weatherlink.com 1.10,2013-05-09 23:12:00,
2013-05-09 19:27:00,65.7,52.0,30.05,South,178,2.0,2.0,62,0.02,,,0.30,weatherlink.com 1.10,2013-05-09 23:27:00,
2013-05-09 19:42:00,64.4,54.0,30.05,SW,225,0.0,1.0,68,0.02,,,0.31,weatherlink.com 1.10,2013-05-09 23:42:00,
2013-05-09 19:57:00,62.6,53.0,30.05,SSW,207,0.0,1.0,71,0.02,,,0.31,weatherlink.com 1.10,2013-05-09 23:57:00,
2013-05-09 20:12:00,61.1,54.0,30.06,SSE,147,0.0,2.0,76,0.02,,,0.32,weatherlink.com 1.10,2013-05-10 00:12:00,
2013-05-09 20:27:00,59.4,52.0,30.06,SSE,147,0.0,1.0,77,0.02,,,0.32,weatherlink.com 1.10,2013-05-10 00:27:00,
2013-05-09 20:42:00,58.1,52.0,30.06,SSE,147,0.0,1.0,79,0.01,,,0.32,weatherlink.com 1.10,2013-05-10 00:42:00,
2013-05-09 20:57:00,57.2,52.0,30.07,SSE,147,0.0,1.0,83,0.02,,,0.33,weatherlink.com 1.10,2013-05-10 00:57:00,
2013-05-09 21:13:00,56.3,52.0,30.07,SSE,147,0.0,0.0,85,0.01,,,0.33,weatherlink.com 1.10,2013-05-10 01:13:00,
2013-05-09 21:28:00,55.6,52.0,30.07,SSE,147,0.0,0.0,86,0.01,,,0.33,weatherlink.com 1.10,2013-05-10 01:28:00,
2013-05-09 21:44:00,54.9,52.0,30.08,SSE,147,0.0,0.0,88,0.01,,,0.34,weatherlink.com 1.10,2013-05-10 01:44:00,
2013-05-09 21:58:00,54.4,51.0,30.09,SSE,147,1.0,1.0,89,0.01,,,0.34,weatherlink.com 1.10,2013-05-10 01:58:00,
2013-05-09 22:13:00,53.7,51.0,30.09,SSE,147,0.0,1.0,90,0.02,,,0.35,weatherlink.com 1.10,2013-05-10 02:13:00,
2013-05-09 22:28:00,53.2,50.0,30.09,SSE,147,0.0,0.0,90,0.01,,,0.35,weatherlink.com 1.10,2013-05-10 02:28:00,
2013-05-09 22:43:00,52.8,51.0,30.09,SSE,147,0.0,0.0,92,0.01,,,0.35,weatherlink.com 1.10,2013-05-10 02:43:00,
2013-05-09 22:58:00,52.3,50.0,30.09,SSE,147,0.0,1.0,92,0.02,,,0.36,weatherlink.com 1.10,2013-05-10 02:58:00,
2013-05-09 23:13:00,51.7,50.0,30.09,SSE,147,0.0,0.0,92,0.01,,,0.36,weatherlink.com 1.10,2013-05-10 03:13:00,
2013-05-09 23:28:00,51.3,49.0,30.09,SSE,147,0.0,0.0,92,0.01,,,0.36,weatherlink.com 1.10,2013-05-10 03:28:00,
2013-05-09 23:43:00,50.9,49.0,30.10,SSE,147,0.0,0.0,92,0.02,,,0.37,weatherlink.com 1.10,2013-05-10 03:43:00,
2013-05-09 23:58:00,50.5,49.0,30.09,SSE,147,0.0,1.0,93,0.01,,,0.37,weatherlink.com 1.10,2013-05-10 03:58:00,